Weather History for Philadelphia Wings Airport, PA

Change the Weather History Date:

Sunday, October 9, 2011

  Actual Average (KPNE) Record (KPNE)
Temperature  
Mean Temperature 65 °F -  
Max Temperature 82 °F 66 °F 86 °F (2007)
Min Temperature 48 °F 46 °F 30 °F (2001)
Growing Degree Days 15 (Base 50)    
Moisture  
Dew Point 54 °F    
Average Humidity 71    
Maximum Humidity 100    
Minimum Humidity 35    
Precipitation  
Precipitation 0.00 in - - ()
Sea Level Pressure  
Sea Level Pressure 30.39 in    
Wind  
Wind Speed 2 mph (West)    
Max Wind Speed 5 mph    
Max Gust Speed -    
Visibility 8 miles    
Events      
Averages and records for this station are not official NWS values.
T = Trace of Precipitation, MM = Missing Value Source: NWS Daily Summary

Daily Weather History Graph

Daily Weather History Graph

Search for Another Location

Airport:

Trip Planner

Search our weather history database for the weather conditions in past years. The results will help you decide how hot, cold, wet, or windy it might be!

Date:

Astronomy

Oct. 09, 2011 Rise Set
Actual Time 7:05 AM EDT 6:30 PM EDT
Civil Twilight 6:37 AM EDT 6:58 PM EDT
Nautical Twilight 6:06 AM EDT 7:29 PM EDT
Astronomical Twilight 5:35 AM EDT 8:00 PM EDT
Moon 5:06 PM EDT (10/9) 4:47 AM EDT (10/9)
Length of Visible Light 12h 20m
Length of Day
11h 25m
Waxing Gibbous, 95% of the Moon is Illuminated
Oct 9
Waxing Gibbous
Oct 11
Full
Oct 19
Last Quarter
Oct 26
New
Nov 2
First Quarter

Hourly Weather History & Observations

Time (EDT) Temp. Heat Index Dew Point Humidity Pressure Visibility Wind Dir Wind Speed Gust Speed Precip Events Conditions
12:15 AM 57.2 °F - 51.8 °F 82% 30.44 in - West 3.5 mph - N/A   Clear
12:35 AM 55.4 °F - 51.8 °F 88% 30.43 in 10.0 mi West 3.5 mph - N/A   Clear
12:55 AM 55.4 °F - 51.8 °F 88% 30.43 in 10.0 mi Calm Calm - N/A   Clear
1:15 AM 53.6 °F - 51.8 °F 94% 30.44 in 10.0 mi Calm Calm - N/A   Clear
1:35 AM 53.6 °F - 51.8 °F 94% 30.43 in 10.0 mi Calm Calm - N/A   Clear
1:55 AM 51.8 °F - 51.8 °F 100% 30.43 in 10.0 mi Calm Calm - N/A   Clear
2:15 AM 55.4 °F - 53.6 °F 94% 30.42 in 10.0 mi West 3.5 mph - N/A   Clear
2:35 AM 53.6 °F - 51.8 °F 94% 30.42 in 10.0 mi Calm Calm - N/A   Clear
2:55 AM 51.8 °F - 50.0 °F 94% 30.42 in 5.0 mi Calm Calm - N/A   Clear
3:35 AM 50.0 °F - 48.2 °F 94% 30.41 in 0.5 mi Calm Calm - N/A   Unknown
3:55 AM 50.0 °F - 50.0 °F 100% 30.42 in 3.0 mi Calm Calm - N/A   Unknown
4:15 AM 50.0 °F - 50.0 °F 100% 30.42 in 3.0 mi Calm Calm - N/A   Unknown
4:35 AM 51.8 °F - 50.0 °F 94% 30.42 in 4.0 mi WSW 3.5 mph - N/A   Clear
5:15 AM 53.6 °F - 51.8 °F 94% 30.42 in 7.0 mi WSW 4.6 mph - N/A   Clear
5:35 AM 51.8 °F - 50.0 °F 94% 30.42 in 4.0 mi Calm Calm - N/A   Clear
5:55 AM 48.2 °F - 48.2 °F 100% 30.43 in 1.2 mi Calm Calm - N/A   Unknown
6:15 AM 50.0 °F - 48.2 °F 94% 30.43 in 2.5 mi Calm Calm - N/A   Unknown
6:35 AM 48.2 °F - 48.2 °F 100% 30.43 in 1.0 mi Calm Calm - N/A   Unknown
7:35 AM 50.0 °F - 50.0 °F 100% 30.43 in 3.0 mi Calm Calm - N/A   Unknown
7:55 AM 50.0 °F - 50.0 °F 100% 30.44 in 2.0 mi Calm Calm - N/A   Unknown
8:15 AM 55.4 °F - 53.6 °F 94% 30.44 in 7.0 mi Calm Calm - N/A   Clear
8:55 AM 59.0 °F - 53.6 °F 82% 30.45 in 10.0 mi WSW 3.5 mph - N/A   Clear
9:15 AM 60.8 °F - 53.6 °F 77% 30.44 in 10.0 mi Calm Calm - N/A   Clear
9:35 AM 64.4 °F - 53.6 °F 68% 30.44 in 10.0 mi West 4.6 mph - N/A   Clear
9:55 AM 66.2 °F - 55.4 °F 68% 30.45 in 10.0 mi Calm Calm - N/A   Clear
10:15 AM 68.0 °F - 55.4 °F 64% 30.45 in 10.0 mi West 3.5 mph - N/A   Clear
10:35 AM 71.6 °F - 55.4 °F 57% 30.44 in 10.0 mi Calm Calm - N/A   Clear
10:55 AM 73.4 °F - 53.6 °F 50% 30.43 in 10.0 mi NNW 3.5 mph - N/A   Clear
11:15 AM 73.4 °F - 53.6 °F 50% 30.43 in 10.0 mi WNW 4.6 mph - N/A   Clear
11:35 AM 77.0 °F - 53.6 °F 44% 30.43 in 10.0 mi WNW 3.5 mph - N/A   Clear
11:55 AM 77.0 °F - 53.6 °F 44% 30.42 in 10.0 mi West 3.5 mph - N/A   Clear
12:15 PM 77.0 °F - 55.4 °F 47% 30.42 in 10.0 mi NW 3.5 mph - N/A   Clear
12:35 PM 78.8 °F - 55.4 °F 44% 30.41 in 10.0 mi Calm Calm - N/A   Clear
12:55 PM 78.8 °F - 53.6 °F 42% 30.40 in 10.0 mi West 3.5 mph - N/A   Clear
1:15 PM 80.6 °F 80.5 °F 55.4 °F 42% 30.39 in 10.0 mi West 3.5 mph - N/A   Clear
1:35 PM 80.6 °F 80.5 °F 55.4 °F 42% 30.38 in 10.0 mi West 3.5 mph - N/A   Clear
2:15 PM 82.4 °F 81.4 °F 53.6 °F 37% 30.36 in 10.0 mi WNW 3.5 mph - N/A   Clear
2:35 PM 82.4 °F 81.7 °F 55.4 °F 39% 30.35 in 10.0 mi Calm Calm - N/A   Clear
2:55 PM 82.4 °F 81.4 °F 53.6 °F 37% 30.34 in 10.0 mi West 4.6 mph - N/A   Clear
3:15 PM 82.4 °F 81.4 °F 53.6 °F 37% 30.34 in 10.0 mi West 3.5 mph - N/A   Clear
3:35 PM 82.4 °F 81.4 °F 53.6 °F 37% 30.33 in 10.0 mi Calm Calm - N/A   Clear
3:55 PM 82.4 °F - 51.8 °F 35% 30.33 in 10.0 mi NW 3.5 mph - N/A   Clear
4:15 PM 82.4 °F - 51.8 °F 35% 30.32 in 10.0 mi West 3.5 mph - N/A   Clear
4:35 PM 82.4 °F 81.4 °F 53.6 °F 37% 30.32 in 10.0 mi West 3.5 mph - N/A   Clear
4:55 PM 82.4 °F 81.4 °F 53.6 °F 37% 30.32 in 10.0 mi West 3.5 mph - N/A   Clear
5:15 PM 82.4 °F 81.4 °F 53.6 °F 37% 30.32 in 10.0 mi WSW 3.5 mph - N/A   Clear
5:35 PM 80.6 °F 80.5 °F 55.4 °F 42% 30.32 in 10.0 mi WSW 4.6 mph - N/A   Clear
5:55 PM 77.0 °F - 59.0 °F 54% 30.32 in 10.0 mi Calm Calm - N/A   Clear
6:15 PM 71.6 °F - 60.8 °F 69% 30.32 in 10.0 mi Calm Calm - N/A   Clear
6:35 PM 69.8 °F - 60.8 °F 73% 30.32 in 10.0 mi Calm Calm - N/A   Clear
6:55 PM 66.2 °F - 60.8 °F 83% 30.32 in 10.0 mi Calm Calm - N/A   Clear
7:55 PM 62.6 °F - 59.0 °F 88% 30.33 in 10.0 mi Calm Calm - N/A   Clear
8:35 PM 62.6 °F - 59.0 °F 88% 30.32 in 10.0 mi Calm Calm - N/A   Clear
8:55 PM 62.6 °F - 59.0 °F 88% 30.32 in 10.0 mi Calm Calm - N/A   Clear
9:35 PM 60.8 °F - 59.0 °F 94% 30.32 in 10.0 mi West 3.5 mph - N/A   Clear
10:15 PM 62.6 °F - 59.0 °F 88% 30.33 in 10.0 mi West 3.5 mph - N/A   Clear
10:35 PM 59.0 °F - 57.2 °F 94% 30.33 in 10.0 mi Calm Calm - N/A   Clear
10:55 PM 59.0 °F - 55.4 °F 88% 30.33 in 7.0 mi Calm Calm - N/A   Clear
11:15 PM 60.8 °F - 59.0 °F 94% 30.32 in 10.0 mi West 4.6 mph - N/A   Clear
11:35 PM 60.8 °F - 59.0 °F 94% 30.32 in 10.0 mi West 4.6 mph - N/A   Clear
11:55 PM 60.8 °F - 57.2 °F 88% 30.32 in 10.0 mi West 3.5 mph - N/A   Clear